This demonstration page uses our WeatherBlox Daily Observations layout. Learn more.

Left ArrowRight Arrow

Hourly Observations for February 5, 2017

Temp ( °F °C ) Dew Point ( °F °C ) Humidity (%) Winds ( mph kmh ) Pressure ( in mb ) Visibility ( mi km ) Precip ( " mm )
12:53 am 00:53 Clear with Mist and Fog 39 3.9 37 2.8 93 93 NNE 6 9 29.98 1015 6 10 0.00 0.00
1:53 am 01:53 Clear with Mist and Fog 37 2.8 36 2.2 96 96 N 8 13 29.97 1015 5 8 0.00 0.00
2:53 am 02:53 Clear with Mist and Fog 36 2.2 36 2.2 100 100 N 8 13 29.97 1015 4 6 0.00 0.00
3:36 am 03:36 Partly Cloudy with Mist and Fog 35 1.7 34 1.1 96 96 N 7 11 30.12 1020 5 8 0.00 0.00
3:44 am 03:44 Mostly Cloudy with Mist and Fog 34 1 34 1 100 100 N 7 11 30.12 1020 4 6 0.00 0.00
3:53 am 03:53 Cloudy with Mist and Fog 34 1.1 34 1.1 100 100 N 6 9 29.97 1015 5 8 0.00 0.00
4:03 am 04:03 Cloudy with Mist and Fog 34 1 34 1 100 100 N 7 11 30.12 1020 2 3 0.00 0.00
4:11 am 04:11 Mostly Cloudy with Fog 34 1.1 34 1.1 100 100 N 6 9 30.12 1020 0 0 0.00 0.00
4:53 am 04:53 Mostly Cloudy with Fog 33 0.6 33 0.6 100 100 NNE 3 6 29.97 1015 0 0 0.00 0.00
5:53 am 05:53 Mostly Cloudy with Fog 32 0 32 0 100 100 NNW 5 7 29.98 1015 0 0 0.00 0.00
6:53 am 06:53 Mostly Cloudy with Fog 34 1.1 34 1.1 100 100 N 3 6 30.00 1016 5 8 0.00 0.00
7:53 am 07:53 Mostly Cloudy with Fog 34 1.1 34 1.1 100 100 N 5 7 30.03 1017 1 1 0.00 0.00
8:17 am 08:17 Mostly Cloudy with Fog 35 1.7 35 1.7 100 100 N 3 6 30.15 1021 0 0 0.00 0.00
8:53 am 08:53 Mostly Cloudy with Fog 37 2.8 37 2.8 100 100 Calm 30.05 1018 5 8 0.00 0.00
9:53 am 09:53 Cloudy with Fog 40 4.4 40 4.4 100 100 N 5 7 30.06 1018 1 1 0.00 0.00
10:09 am 10:09 Mostly Cloudy with Mist and Fog 41 5 41 5 100 100 NNW 3 6 30.15 1021 3 4 0.00 0.00
10:16 am 10:16 Mostly Cloudy with Mist and Fog 43 6 43 6 100 100 N 5 7 30.12 1020 6 10 0.00 0.00
10:25 am 10:25 Partly Cloudy 43 6.1 42 5.6 97 97 N 5 7 30.12 1020 8 13 0.00 0.00
10:53 am 10:53 Sunny 45 7.2 43 6.1 93 93 NNW 5 7 30.06 1018 10 16 0.00 0.00
11:53 am 11:53 Sunny 60 15.6 42 5.6 52 52 VRB 3 6 30.02 1017 10 16 0.00 0.00
12:53 pm 12:53 Sunny 67 19.4 38 3.3 35 35 W 6 9 29.97 1015 10 16 0.00 0.00
1:53 pm 13:53 Sunny 71 21.7 30 -1.1 22 22 W 6 9 29.92 1013 10 16 0.00 0.00
2:53 pm 14:53 Sunny 76 24.4 26 -3.3 16 16 W 10 17 29.88 1012 10 16 0.00 0.00
3:53 pm 15:53 Sunny 79 26.1 25 -3.9 14 14 WSW 9 15 29.85 1011 10 16 0.00 0.00
4:53 pm 16:53 Sunny 79 26.1 25 -3.9 14 14 WSW 12 19 29.86 1011 10 16 0.00 0.00
5:53 pm 17:53 Sunny 77 25 27 -2.8 16 16 SW 5 7 29.86 1011 10 16 0.00 0.00
6:53 pm 18:53 Clear 68 20 25 -3.9 20 20 WSW 6 9 29.88 1012 10 16 0.00 0.00
7:53 pm 19:53 Clear 63 17.2 26 -3.3 25 25 S 5 7 29.88 1012 10 16 0.00 0.00
8:53 pm 20:53 Clear 56 13.3 29 -1.7 36 36 SSE 9 15 29.89 1012 10 16 0.00 0.00
9:53 pm 21:53 Clear 57 13.9 30 -1.1 36 36 SSE 7 11 29.90 1013 10 16 0.00 0.00
10:53 pm 22:53 Clear 52 11.1 38 3.3 59 59 SSE 9 15 29.91 1013 10 16 0.00 0.00
11:53 pm 23:53 Clear 48 8.9 38 3.3 68 68 SE 9 15 29.90 1012 10 16 0.00 0.00

Powered by AerisWeather